Wind_Speed
23 23 24 25 25 25 25 25 25 25 25 25 24 24 23 23 24 23 23 23 23 22 22 22 23 23 23 23 22 22 21 22 22 22 22 22 22 21 21 20 20 20 20
24 24 24 24 25 25 26 26 25 25 26 26 25 25 25 25 25 25 25 24 24 24 24 23 23 23 23 23 23 22 22 22 22 22 22 22 22 21 21 21 21 21 21
24 24 25 25 25 26 26 27 27 27 27 27 27 27 27 26 26 27 26 26 26 26 25 25 24 24 24 24 24 24 23 23 22 22 21 22 22 22 21 21 21 21 21
26 26 26 26 27 27 27 28 28 28 28 28 28 28 28 28 28 28 28 27 27 27 27 26 26 25 25 24 24 24 23 23 23 23 22 22 22 22 22 22 22 22 21
26 26 27 27 28 28 29 29 29 29 29 29 29 30 30 30 29 28 28 28 28 28 28 27 27 27 26 25 25 24 24 24 24 24 23 23 22 22 22 22 22 22 22
27 27 28 29 29 30 30 30 30 30 30 30 30 31 31 31 31 29 29 29 29 29 28 28 27 27 27 26 25 25 25 25 25 25 24 24 24 23 23 23 23 23 23
28 28 29 29 30 30 30 30 30 31 31 31 31 31 31 30 30 29 29 29 29 29 29 29 29 28 28 27 26 26 26 25 26 25 25 25 25 25 24 24 24 24 23
29 29 29 29 30 30 30 30 30 30 30 30 30 30 31 30 30 29 29 28 29 30 29 30 29 29 28 28 28 27 27 27 26 26 26 26 26 26 25 25 25 25 25
30 30 30 30 30 30 30 30 31 30 30 30 30 30 30 30 31 31 30 29 29 30 30 30 30 29 29 29 29 28 28 28 27 27 27 27 27 27 27 27 27 27 26
31 32 31 30 31 30 31 31 31 31 31 30 31 31 31 31 31 32 32 31 30 30 31 31 31 30 30 30 29 29 29 29 29 28 28 27 27 27 28 28 28 27 27
33 33 33 32 31 31 32 31 31 31 31 32 32 32 33 33 33 33 33 32 31 31 31 32 32 31 31 31 31 31 31 31 31 30 30 29 28 28 28 28 28 28 28
33 34 34 33 33 31 31 31 31 31 32 33 33 33 33 33 33 33 34 34 33 32 32 33 34 33 33 33 33 32 33 33 32 32 31 30 29 29 28 29 29 29 29
34 34 34 34 34 33 32 32 32 33 33 34 34 34 33 33 33 33 34 35 35 34 33 34 34 34 34 35 34 34 34 34 33 33 33 32 32 31 30 30 30 30 30
33 33 33 34 34 34 34 33 33 33 34 35 35 35 35 35 34 34 34 34 34 33 33 33 34 34 34 34 34 34 35 35 35 34 35 34 34 33 32 32 31 30 30
32 32 33 33 34 34 35 35 34 34 34 35 35 36 36 35 36 36 35 34 35 34 32 33 33 33 33 33 33 34 34 35 35 35 35 35 34 34 33 32 31 30 29
31 31 32 33 34 34 35 35 36 36 36 36 35 35 35 35 36 36 35 35 35 34 33 33 33 32 33 33 34 34 34 34 34 34 34 34 34 34 34 34 33 32 31
29 30 31 32 33 34 35 35 35 35 36 35 35 35 36 36 35 35 34 35 35 34 33 33 33 33 33 33 34 35 35 36 36 35 34 33 33 33 33 33 33 33 33
30 30 30 30 31 31 32 33 34 34 34 34 35 35 36 36 36 36 36 35 35 34 34 34 34 34 35 35 35 35 35 35 35 35 34 34 33 33 33 33 33 33 33
29 29 29 30 31 31 31 31 31 32 32 33 33 34 35 35 36 36 37 36 35 35 34 34 34 34 35 34 34 35 35 35 35 34 34 34 33 33 33 33 33 34 34
28 28 29 29 30 30 30 30 30 30 31 31 32 33 33 33 33 35 35 35 35 34 34 34 35 35 35 35 35 35 35 35 35 34 34 34 34 34 33 33 33 33 33
28 28 28 29 29 29 29 29 30 30 31 30 30 31 32 32 32 33 34 34 34 34 34 34 34 35 35 35 35 36 36 35 35 34 34 34 34 34 34 34 33 33 33
28 28 28 28 27 28 28 29 29 30 30 30 30 30 31 32 32 32 33 33 34 34 33 34 34 34 34 34 35 36 36 36 35 35 35 35 35 35 35 35 34 34 34
27 27 27 27 27 28 28 29 29 29 29 29 29 30 31 31 31 32 32 33 33 34 34 34 34 35 35 35 36 36 36 35 35 35 36 36 36 36 36 35 35 35 35
26 26 27 27 27 27 27 28 28 29 29 29 29 29 30 31 32 32 32 32 32 33 33 34 34 34 34 34 34 35 35 34 35 35 36 36 36 36 36 36 36 36 35
25 25 26 26 26 27 27 28 28 28 28 28 28 28 28 29 30 31 31 32 32 32 32 33 33 33 33 33 33 33 34 35 35 36 36 36 35 35 36 35 35 35 35
25 25 25 25 25 26 26 26 27 27 28 28 28 28 28 28 29 30 30 31 31 32 32 32 32 32 32 33 33 33 33 34 34 34 35 34 35 35 35 35 35 36 35
Wind_Direction
265 264 263 261 259 259 258 258 259 259 259 260 262 264 266 268 268 268 270 271 272 273 275 276 275 276 276 277 277 278 279 279 280 282 282 281 281 282 283 282 283 283 282
266 265 263 262 259 258 258 258 259 260 260 262 263 264 266 268 269 269 270 271 271 273 274 275 275 275 275 277 277 278 279 279 280 281 281 281 282 281 282 281 282 282 281
267 266 263 261 260 259 259 259 259 260 262 264 265 265 266 267 269 268 268 269 270 271 272 272 273 272 273 275 276 277 278 278 279 280 280 280 282 282 280 281 282 283 282
265 265 263 261 260 261 262 261 261 262 264 265 266 266 266 267 268 267 266 268 269 269 271 271 271 272 273 274 275 275 276 276 278 278 279 279 280 279 278 279 281 281 282
263 263 263 262 262 262 263 263 263 264 265 265 266 267 266 267 267 267 266 267 268 269 270 271 271 270 271 272 273 272 273 275 277 277 277 278 278 276 276 277 279 280 280
265 265 264 264 264 263 264 265 265 265 265 266 267 267 267 267 266 266 266 267 267 268 268 268 269 270 270 269 270 270 272 274 276 277 276 276 276 275 275 277 278 278 278
265 266 266 265 265 264 264 265 266 265 266 266 266 266 267 267 266 265 266 267 267 267 266 266 268 268 268 269 269 270 271 272 274 276 276 276 275 275 275 276 276 277 277
267 266 266 266 267 265 265 266 267 266 266 266 266 267 267 266 265 264 265 267 266 266 266 266 267 267 267 269 268 269 269 271 274 276 276 276 275 274 274 275 275 275 276
267 267 266 266 266 266 266 265 265 266 266 266 266 266 266 265 265 265 265 267 268 267 266 266 267 268 267 267 266 267 267 268 271 274 275 276 275 274 274 275 274 274 275
268 268 266 265 265 265 265 265 266 266 265 264 265 265 265 265 265 266 266 267 267 266 265 266 266 265 267 267 265 267 267 267 270 272 275 276 275 274 273 273 274 274 275
269 269 267 265 264 264 264 265 266 266 266 265 265 265 265 265 265 265 266 266 266 265 264 265 265 265 265 266 265 267 268 269 269 272 274 275 274 274 274 273 274 274 275
272 270 268 266 264 264 264 264 265 266 267 267 267 267 267 266 265 265 266 266 265 265 266 265 264 264 265 265 266 266 267 269 270 270 272 273 273 274 274 274 274 274 274
270 269 269 268 266 266 265 265 265 266 266 267 268 267 266 267 267 266 266 265 265 265 266 266 265 265 265 265 265 266 267 268 268 269 271 271 272 273 273 274 275 274 274
271 270 270 268 268 267 267 268 267 267 268 268 268 268 267 268 269 267 265 264 265 266 265 266 266 265 265 265 265 265 266 267 267 268 269 271 271 270 270 271 273 273 273
271 271 269 268 268 267 268 269 268 268 268 269 270 269 268 269 269 269 267 265 265 264 265 266 264 262 264 265 266 265 266 267 267 268 269 269 270 269 269 269 270 271 271
271 270 270 269 268 268 269 269 269 269 269 269 269 269 269 269 269 269 268 268 267 265 266 265 264 263 264 264 266 266 266 267 267 269 270 270 269 268 267 266 267 269 269
273 272 272 270 269 268 268 269 270 270 271 270 269 269 269 268 269 269 269 269 268 267 266 266 266 266 266 266 267 267 267 267 268 268 269 271 271 269 268 268 267 267 268
275 275 274 272 272 271 269 270 271 270 270 269 269 268 268 268 268 269 268 268 268 266 266 266 266 267 267 267 268 268 268 268 269 268 268 269 270 270 269 269 269 268 267
278 277 276 275 274 273 272 272 271 271 271 270 270 269 269 269 268 267 267 267 268 267 267 266 266 266 267 267 267 267 268 269 269 268 268 269 270 271 271 270 270 269 268
280 279 278 277 276 275 274 273 273 274 274 274 273 272 270 269 268 268 267 267 268 267 266 265 265 265 265 267 267 267 268 269 269 268 268 268 269 270 270 271 271 271 270
282 281 280 279 277 276 276 275 274 274 274 274 275 273 271 270 270 269 268 268 268 268 267 265 265 266 266 265 266 267 267 269 267 267 266 266 267 268 269 270 270 271 271
283 281 280 278 277 277 277 276 275 274 273 274 274 274 274 273 271 270 269 269 269 269 268 267 266 266 267 266 266 267 267 267 266 266 266 266 267 267 268 269 268 269 270
283 281 281 280 279 278 278 278 276 274 272 272 273 274 274 274 273 271 270 269 269 268 268 268 268 269 269 268 267 267 267 267 266 266 265 265 265 266 267 268 268 268 269
285 284 283 282 281 280 279 278 277 274 273 273 274 274 274 274 273 273 272 270 269 269 269 269 270 271 270 270 269 268 267 267 267 266 265 264 264 265 266 267 268 268 269
290 288 287 284 283 282 281 280 279 276 275 275 274 275 275 275 274 275 275 273 271 272 271 270 270 271 270 268 268 268 267 266 265 265 265 264 264 265 264 265 267 268 269
292 292 290 288 285 284 283 282 281 279 277 276 276 275 275 276 276 277 277 275 274 273 271 270 270 270 270 269 269 269 267 266 265 264 264 264 265 266 265 265 266 268 268
Height
5800 5800 5801 5801 5802 5802 5803 5803 5804 5804 5805 5805 5805 5806 5806 5806 5806 5806 5806 5806 5805 5805 5804 5803 5803 5802 5801 5800 5799 5798 5797 5796 5794 5793 5791 5790 5788 5787 5786 5784 5783 5782 5781
5793 5794 5794 5794 5795 5795 5796 5796 5797 5797 5798 5798 5799 5799 5799 5799 5799 5799 5799 5799 5798 5798 5798 5797 5796 5795 5795 5794 5793 5792 5791 5789 5788 5786 5785 5783 5782 5781 5780 5779 5777 5776 5775
5786 5787 5787 5787 5788 5788 5789 5789 5790 5790 5791 5791 5791 5791 5792 5792 5792 5792 5792 5792 5791 5791 5791 5790 5789 5789 5788 5787 5786 5785 5784 5783 5782 5780 5779 5777 5776 5775 5774 5772 5771 5770 5769
5779 5779 5779 5780 5780 5781 5781 5782 5782 5783 5783 5783 5783 5784 5784 5784 5784 5784 5784 5784 5784 5783 5783 5783 5782 5782 5781 5780 5779 5779 5778 5777 5775 5774 5772 5771 5770 5768 5767 5766 5765 5764 5763
5771 5771 5772 5772 5772 5773 5773 5774 5774 5774 5775 5775 5775 5775 5775 5775 5776 5776 5776 5776 5776 5775 5775 5775 5774 5774 5774 5773 5773 5772 5771 5770 5768 5767 5766 5764 5763 5762 5761 5760 5758 5757 5756
5763 5763 5763 5764 5764 5764 5765 5765 5765 5766 5766 5766 5767 5767 5767 5767 5767 5767 5767 5767 5767 5767 5767 5766 5766 5766 5766 5766 5765 5764 5764 5763 5762 5761 5759 5758 5756 5755 5754 5753 5752 5751 5750
5754 5754 5755 5755 5755 5756 5756 5756 5757 5757 5757 5757 5758 5758 5758 5758 5758 5758 5758 5758 5758 5758 5758 5758 5758 5758 5758 5758 5757 5757 5756 5755 5755 5754 5752 5751 5749 5748 5747 5746 5745 5744 5743
5745 5745 5746 5746 5746 5746 5747 5747 5747 5748 5748 5748 5748 5749 5749 5749 5749 5749 5749 5749 5749 5749 5749 5749 5749 5749 5749 5749 5749 5749 5748 5748 5747 5746 5745 5743 5742 5741 5740 5739 5738 5737 5736
5737 5737 5737 5737 5737 5738 5738 5738 5738 5739 5739 5739 5739 5740 5740 5740 5740 5740 5740 5740 5740 5740 5740 5740 5740 5740 5740 5741 5740 5740 5740 5740 5739 5738 5737 5735 5734 5733 5732 5731 5730 5730 5729
5728 5728 5728 5728 5728 5729 5729 5729 5729 5729 5730 5730 5730 5730 5731 5731 5731 5731 5731 5731 5731 5731 5731 5731 5731 5731 5731 5731 5731 5731 5731 5731 5731 5730 5729 5727 5726 5725 5724 5723 5722 5722 5721
5718 5718 5718 5718 5718 5719 5719 5719 5720 5720 5720 5720 5721 5721 5721 5721 5721 5721 5721 5721 5721 5721 5722 5722 5722 5722 5722 5722 5722 5722 5722 5722 5721 5721 5720 5719 5718 5717 5716 5715 5714 5714 5713
5708 5708 5708 5708 5708 5709 5709 5710 5710 5710 5710 5711 5711 5711 5711 5711 5710 5710 5710 5711 5711 5711 5712 5712 5712 5712 5712 5712 5712 5712 5712 5712 5712 5712 5711 5710 5709 5708 5707 5706 5705 5705 5704
5698 5698 5698 5697 5698 5698 5699 5699 5699 5700 5700 5700 5701 5700 5700 5700 5700 5700 5700 5700 5700 5700 5701 5701 5701 5701 5702 5702 5702 5702 5702 5702 5702 5702 5701 5701 5700 5699 5698 5697 5697 5696 5695
5687 5687 5687 5687 5687 5687 5688 5688 5689 5689 5689 5689 5690 5690 5689 5689 5689 5688 5688 5689 5689 5689 5689 5690 5690 5690 5690 5691 5691 5691 5691 5691 5691 5691 5691 5690 5690 5690 5689 5688 5688 5687 5686
5677 5677 5677 5676 5677 5677 5677 5678 5678 5678 5678 5679 5679 5678 5678 5678 5678 5677 5677 5677 5678 5678 5678 5679 5679 5680 5680 5680 5680 5680 5680 5680 5680 5680 5679 5679 5679 5679 5679 5678 5678 5677 5677
5666 5666 5666 5666 5666 5666 5666 5667 5667 5667 5667 5667 5667 5667 5667 5667 5667 5667 5666 5667 5667 5667 5667 5668 5669 5669 5669 5670 5670 5670 5670 5669 5669 5669 5669 5669 5668 5668 5668 5668 5668 5668 5667
5656 5656 5655 5655 5655 5655 5655 5656 5656 5656 5656 5656 5656 5656 5656 5656 5656 5656 5655 5656 5656 5656 5657 5657 5658 5658 5659 5659 5659 5659 5659 5659 5658 5658 5658 5658 5658 5657 5657 5657 5657 5657 5657
5646 5646 5645 5645 5645 5644 5644 5645 5645 5645 5645 5645 5644 5644 5644 5644 5644 5644 5644 5644 5645 5645 5646 5646 5647 5647 5647 5648 5648 5648 5648 5647 5647 5647 5647 5647 5647 5647 5647 5647 5647 5646 5647
5637 5636 5636 5635 5635 5634 5634 5634 5634 5634 5634 5634 5633 5633 5633 5633 5633 5633 5633 5633 5634 5634 5635 5635 5635 5636 5636 5636 5636 5637 5636 5636 5636 5636 5636 5636 5636 5636 5636 5636 5636 5636 5635
5628 5627 5626 5625 5625 5624 5623 5623 5623 5623 5623 5623 5623 5622 5622 5622 5622 5622 5622 5622 5622 5623 5623 5624 5624 5624 5624 5625 5625 5625 5625 5625 5625 5625 5625 5625 5625 5625 5625 5625 5625 5625 5625
5619 5618 5616 5615 5615 5614 5613 5613 5613 5613 5612 5612 5612 5612 5611 5611 5611 5611 5611 5611 5611 5611 5612 5612 5612 5612 5613 5613 5613 5613 5613 5613 5613 5614 5614 5614 5614 5614 5614 5614 5614 5614 5614
5610 5608 5607 5606 5605 5604 5604 5603 5602 5602 5602 5601 5601 5601 5600 5600 5599 5600 5600 5600 5600 5600 5600 5600 5601 5601 5601 5601 5601 5601 5601 5601 5601 5602 5602 5602 5603 5603 5603 5603 5603 5603 5603
5600 5599 5598 5597 5596 5595 5594 5593 5592 5592 5591 5591 5591 5591 5590 5589 5589 5588 5589 5588 5588 5589 5589 5589 5589 5589 5589 5589 5589 5589 5589 5589 5589 5589 5590 5590 5590 5591 5591 5591 5592 5592 5591
5592 5590 5589 5588 5587 5586 5584 5583 5582 5582 5581 5581 5580 5580 5579 5579 5578 5578 5577 5577 5577 5577 5577 5577 5577 5577 5576 5576 5576 5576 5577 5577 5577 5577 5577 5578 5578 5579 5579 5580 5580 5580 5580
5584 5582 5580 5579 5578 5576 5575 5574 5573 5572 5571 5571 5570 5570 5569 5568 5568 5567 5566 5566 5565 5565 5565 5565 5565 5565 5565 5564 5564 5564 5564 5564 5565 5565 5565 5565 5566 5567 5567 5568 5568 5568 5568
5576 5574 5572 5570 5569 5567 5566 5565 5564 5563 5562 5561 5560 5559 5559 5558 5557 5557 5556 5555 5554 5554 5554 5554 5554 5553 5553 5553 5553 5552 5552 5552 5552 5552 5552 5553 5554 5554 5555 5556 5556 5556 5556